This is the latest recevied weather packets stored in our database for station/object KC8P. If no packets are shown the sender has not sent any weather packets the latest 1 day(s).
| Time | Temp. | Humidity | Pressure | Rain* | Wind** | Luminosity | Snow |
|---|---|---|---|---|---|---|---|
| 1778082974 | 11.11° C | 55% | 1012.4 hPa | 0 mm | - | 590 W/m² | - |
| 1778082909 | 11.11° C | 56% | 1012.4 hPa | 0 mm | - | 477 W/m² | - |
| 1778082843 | 11.11° C | 56% | 1012.4 hPa | 0 mm | - | 629 W/m² | - |
| 1778082711 | 11.11° C | 54% | 1012.4 hPa | 0 mm | - | 324 W/m² | - |
| 1778082645 | 10.56° C | 55% | 1012.1 hPa | 0 mm | - | 662 W/m² | - |
| 1778082515 | 10.56° C | 55% | 1012.1 hPa | 0 mm | - | 664 W/m² | - |
| 1778082317 | 10.56° C | 55% | 1012.1 hPa | 0 mm | - | 859 W/m² | - |
| 1778082252 | 10° C | 58% | 1012.4 hPa | 0 mm | - | 835 W/m² | - |
| 1778082186 | 9.44° C | 59% | 1012.4 hPa | 0 mm | - | 803 W/m² | - |
| 1778081923 | 10° C | 59% | 1012.1 hPa | 0 mm | - | 849 W/m² | - |
| 1778081530 | 10° C | 59% | 1012.1 hPa | 0 mm | - | 288 W/m² | - |
| 1778080282 | 10.56° C | 55% | 1012.4 hPa | 0 mm | - | 244 W/m² | - |
| 1778080151 | 11.67° C | 55% | 1012.1 hPa | 0 mm | - | 837 W/m² | - |
| 1778080086 | 11.67° C | 53% | 1012.4 hPa | 0 mm | - | 784 W/m² | - |
| 1778080020 | 11.11° C | 55% | 1012.1 hPa | 0 mm | - | 787 W/m² | - |
| 1778079954 | 11.11° C | 56% | 1012.4 hPa | 0 mm | - | 808 W/m² | - |
| 1778079888 | 11.67° C | 55% | 1012.4 hPa | 0 mm | - | 806 W/m² | - |
| 1778079823 | 11.67° C | 53% | 1012.4 hPa | 0 mm | - | 797 W/m² | - |
| 1778079625 | 10.56° C | 56% | 1012.1 hPa | 0 mm | - | 775 W/m² | - |
| 1778079559 | 10.56° C | 55% | 1012.4 hPa | 0 mm | - | 803 W/m² | - |
| 1778079493 | 10° C | 58% | 1012.1 hPa | 0 mm | - | 801 W/m² | - |
| 1778079427 | 10° C | 58% | 1012.1 hPa | 0 mm | - | 790 W/m² | - |
| 1778079295 | 9.44° C | 59% | 1012.1 hPa | 0 mm | - | 706 W/m² | - |
| 1778079229 | 8.33° C | 60% | 1012.4 hPa | 0 mm | - | 675 W/m² | - |
| 1778079163 | 8.33° C | 61% | 1012.1 hPa | 0 mm | - | 649 W/m² | - |
* Rain latest hour (hover to see other rain measurements)
** Current wind speed in m/s (hover to see current wind gust speed)